This demonstration page uses our WeatherBlox Daily Observations layout. Learn more.

Left ArrowRight Arrow

39.01783, -85.05884

Hourly Observations for March 2, 2017

Temp ( °F °C ) Dew Point ( °F °C ) Humidity (%) Winds ( mph kmh ) Pressure ( in mb ) Visibility ( mi km ) Precip ( " mm )
12:52 am 00:52 Cloudy 39 3.9 28 -2.2 65 65 W 13 20 30.05 1018 10 16 0.00 0.03
1:52 am 01:52 Cloudy 38 3.3 26 -3.3 62 62 WNW 21 33 30.08 1019 10 16 0.00 0.00
2:52 am 02:52 Cloudy 38 3.3 25 -3.9 60 60 W 20 31 30.09 1019 10 16 0.00 0.00
3:52 am 03:52 Cloudy 37 2.8 25 -3.9 62 62 W 16 26 30.10 1019 10 16 0.00 0.00
4:52 am 04:52 Cloudy 36 2.2 26 -3.3 67 67 W 14 22 30.12 1020 10 16 0.00 0.00
5:52 am 05:52 Cloudy 35 1.7 26 -3.3 70 70 W 15 24 30.14 1021 10 16 0.00 0.00
6:52 am 06:52 Cloudy 35 1.7 24 -4.4 64 64 WNW 13 20 30.16 1021 10 16 0.00 0.00
7:05 am 07:05 Cloudy 35 1.7 25 -3.9 67 67 W 15 24 30.21 1023 10 16 0.00 0.00
7:52 am 07:52 Cloudy 34 1.1 24 -4.4 67 67 WNW 15 24 30.18 1022 10 16 0.00 0.00
8:11 am 08:11 Cloudy 34 1.1 24 -4.4 67 67 W 13 20 30.24 1024 10 16 0.00 0.00
8:52 am 08:52 Cloudy 34 1.1 24 -4.4 67 67 W 16 26 30.21 1023 10 16 0.00 0.00
9:36 am 09:36 Mostly Cloudy 36 2 25 -4 65 65 W 16 26 30.27 1025 10 16 0.00 0.00
9:48 am 09:48 Partly Cloudy 36 2 25 -4 65 65 W 9 15 30.27 1025 10 16 0.00 0.00
9:52 am 09:52 Mostly Sunny 36 2.2 25 -3.9 64 64 W 10 17 30.22 1024 10 16 0.00 0.00
10:52 am 10:52 Mostly Cloudy 38 3.3 23 -5 55 55 NW 17 28 30.25 1024 10 16 0.00 0.00
11:52 am 11:52 Cloudy 40 4.4 23 -5 51 51 WNW 18 30 30.26 1025 10 16 0.00 0.00
12:52 pm 12:52 Mostly Cloudy 41 5 24 -4.4 51 51 W 20 31 30.26 1025 10 16 0.00 0.00
1:52 pm 13:52 Mostly Cloudy 42 5.6 24 -4.4 49 49 W 18 30 30.25 1024 10 16 0.00 0.00
2:52 pm 14:52 Mostly Cloudy 42 5.6 22 -5.6 45 45 W 13 20 30.23 1024 10 16 0.00 0.00
3:52 pm 15:52 Mostly Cloudy 42 5.6 21 -6.1 43 43 W 17 28 30.24 1024 10 16 0.00 0.00
4:52 pm 16:52 Partly Cloudy 43 6.1 21 -6.1 42 42 W 18 30 30.24 1024 10 16 0.00 0.00
5:52 pm 17:52 Partly Cloudy 42 5.6 19 -7.2 40 40 W 17 28 30.25 1024 10 16 0.00 0.00
6:52 pm 18:52 Cloudy 40 4.4 19 -7.2 43 43 WNW 13 20 30.28 1025 10 16 0.00 0.00
7:52 pm 19:52 Cloudy 39 3.9 20 -6.7 46 46 WNW 13 20 30.30 1026 10 16 0.00 0.00
8:52 pm 20:52 Mostly Cloudy 38 3.3 20 -6.7 48 48 WNW 16 26 30.32 1027 10 16 0.00 0.00
9:52 pm 21:52 Mostly Cloudy 36 2.2 21 -6.1 55 55 NW 17 28 30.33 1027 10 16 0.00 0.00
10:52 pm 22:52 Mostly Cloudy 35 1.7 22 -5.6 59 59 WNW 12 19 30.33 1027 10 16 0.00 0.00
11:52 pm 23:52 Mostly Cloudy 34 1.1 23 -5 64 64 NW 14 22 30.35 1028 10 16 0.00 0.00

Powered by AerisWeather